This is the latest recevied weather packets stored in our database for station/object WS4FSC-7. If no packets are shown the sender has not sent any weather packets the latest 10 day(s).
| Time | Temp. | Humidity | Pressure | Rain* | Wind** | Luminosity | Snow |
|---|---|---|---|---|---|---|---|
| 1788130071 | 29.44° C | 79% | 1015 hPa | - | - | 22 W/m² | - |
| 1788129891 | 29.44° C | 79% | 1015 hPa | - | - | 26 W/m² | - |
| 1788129531 | 29.44° C | 79% | 1015 hPa | - | - | 39 W/m² | - |
| 1788129172 | 29.44° C | 80% | 1015 hPa | - | - | 58 W/m² | - |
| 1788128991 | 29.44° C | 79% | 1015 hPa | - | - | 71 W/m² | - |
| 1788128632 | 29.44° C | 79% | 1015 hPa | - | - | 94 W/m² | - |
| 1788127732 | 29.44° C | 79% | 1014 hPa | - | - | 123 W/m² | - |
| 1788127190 | 29.44° C | 79% | 1015 hPa | - | - | 127 W/m² | - |
| 1788127011 | 29.44° C | 78% | 1014 hPa | - | - | 136 W/m² | - |
| 1788126111 | 29.44° C | 77% | 1015 hPa | - | - | 114 W/m² | - |
| 1788125751 | 29.44° C | 77% | 1015 hPa | - | - | 110 W/m² | - |
| 1788125392 | 30° C | 78% | 1015 hPa | - | - | 105 W/m² | - |
| 1788125185 | 29.44° C | 77% | 1015 hPa | - | - | 101 W/m² | - |
| 1788125031 | 29.44° C | 77% | 1015 hPa | - | - | 101 W/m² | - |
| 1788124671 | 30° C | 77% | 1014 hPa | - | - | 99 W/m² | - |
| 1788124310 | 30° C | 77% | 1015 hPa | - | - | 97 W/m² | - |
| 1788123648 | 30° C | 76% | 1015 hPa | - | - | 89 W/m² | - |
| 1788123592 | 30° C | 76% | 1015 hPa | - | - | 89 W/m² | - |
| 1788123168 | 30° C | 76% | 1015 hPa | - | - | 108 W/m² | - |
| 1788123051 | 30° C | 76% | 1015 hPa | - | - | 108 W/m² | - |
| 1788122252 | 31.67° C | 72% | 1015 hPa | - | - | 486 W/m² | - |
| 1788122151 | 31.67° C | 72% | 1015 hPa | - | - | 486 W/m² | - |
| 1788121906 | 31.11° C | 73% | 1014 hPa | - | - | 502 W/m² | - |
| 1788121791 | 31.11° C | 73% | 1014 hPa | - | - | 502 W/m² | - |
| 1788121320 | 30.56° C | 73% | 1014 hPa | - | - | 578 W/m² | - |
* Rain since midnight (hover to see other rain measurements)
** Current wind speed in m/s (hover to see current wind gust speed)